CW7710 Weather Reports


time (UTC)temp
C
wind
direction
speed
KPH
gust
KPH
rain 1hr
cm
rain 24hr
cm
rain mn
cm
humidity
%
barometer
mb
20260508044338 8 205 6.4 0.0 0.00 0.00 0.00 65 1015.6
20260508043325 8 270 4.8 0.0 0.00 0.00 0.00 65 1015.4
20260508042334 9 326 3.2 0.0 0.00 0.00 0.00 63 1016.0
20260508041358 10 239 6.4 0.0 0.00 0.00 0.00 61 1015.9
20260508035405 10 176 4.8 0.0 0.00 0.00 0.00 60 1015.2
20260508034332 10 228 1.6 0.0 0.00 0.00 0.00 57 1014.8
20260508033356 11 330 4.8 0.0 0.00 0.00 0.00 55 1015.2
20260508032359 13 181 6.4 0.0 0.00 0.00 0.00 52 1014.9
20260508031341 15 32 3.2 0.0 0.00 0.00 0.00 48 1014.9
20260508030329 15 30 4.8 0.0 0.00 0.00 0.00 48 1014.8
20260508025337 15 30 1.6 0.0 0.00 0.00 0.00 47 1014.4
20260508024401 15 27 3.2 0.0 0.00 0.00 0.00 47 1014.3
20260508023344 15 36 6.4 0.0 0.00 0.00 0.00 47 1014.1
20260508022328 16 90 1.6 0.0 0.00 0.00 0.00 46 1014.7
20260508021352 16 51 3.2 0.0 0.00 0.00 0.00 48 1014.5
20260508020338 16 59 1.6 0.0 0.00 0.00 0.00 47 1014.4
20260508015342 16 18 6.4 0.0 0.00 0.00 0.00 48 1013.8
20260508014326 16 37 6.4 0.0 0.00 0.00 0.00 47 1013.7
20260508013331 16 24 16.1 0.0 0.00 0.00 0.00 47 1013.7
20260508012339 16 34 17.7 0.0 0.00 0.00 0.00 48 1013.4
20260508011404 16 3 16.1 0.0 0.00 0.00 0.00 48 1013.7
20260508010327 16 46 24.1 0.0 0.00 0.00 0.00 49 1014.6
20260508005331 16 39 29.0 0.0 0.00 0.00 0.00 49 1013.8
20260508004343 17 36 29.0 0.0 0.00 0.00 0.00 48 1013.4
20260508003347 16 19 27.4 0.0 0.00 0.00 0.00 48 1013.7
20260508002330 17 20 30.6 0.0 0.00 0.00 0.00 48 1013.3
20260508001334 17 27 33.8 0.0 0.00 0.00 0.00 46 1013.1
20260508000327 19 13 12.9 0.0 0.00 0.00 0.00 42 1013.4
20260507235328 18 352 12.9 0.0 0.00 0.00 0.00 42 1013.0
20260507234331 19 2 16.1 0.0 0.00 0.00 0.00 40 1012.9
20260507233335 20 341 12.9 0.0 0.00 0.00 0.00 39 1013.0
20260507232359 20 15 20.9 0.0 0.00 0.00 0.00 38 1013.0
20260507231402 20 11 16.1 0.0 0.00 0.00 0.00 39 1012.9
20260507230349 20 346 17.7 0.0 0.00 0.00 0.00 37 1013.0
20260507225332 20 11 12.9 0.0 0.00 0.00 0.00 38 1012.4
20260507224336 20 4 11.3 0.0 0.00 0.00 0.00 36 1012.3
20260507223341 20 8 16.1 0.0 0.00 0.00 0.00 37 1012.4
20260507222329 20 333 16.1 0.0 0.00 0.00 0.00 37 1012.5
20260507221334 20 26 9.7 0.0 0.00 0.00 0.00 37 1012.3
20260507220339 20 16 14.5 0.0 0.00 0.00 0.00 36 1012.4
20260507215403 20 20 11.3 0.0 0.00 0.00 0.00 37 1012.6
20260507214406 20 30 14.5 0.0 0.00 0.00 0.00 37 1012.7
20260507213332 20 352 12.9 0.0 0.00 0.00 0.00 37 1012.7
20260507212356 20 347 19.3 0.0 0.00 0.00 0.00 38 1012.8
20260507211339 20 334 19.3 0.0 0.00 0.00 0.00 39 1012.8
20260507210327 20 7 16.1 0.0 0.00 0.00 0.00 39 1013.0
20260507205336 20 359 20.9 0.0 0.00 0.00 0.00 39 1013.6
20260507204342 20 55 24.1 0.0 0.00 0.00 0.00 41 1013.6
20260507203326 20 8 20.9 0.0 0.00 0.00 0.00 42 1013.5
20260507202334 20 42 25.7 0.0 0.00 0.00 0.00 43 1013.5
20260507201322 20 338 19.3 0.0 0.00 0.00 0.00 44 1013.3
20260507200329 19 44 16.1 0.0 0.00 0.00 0.00 40 1012.0
20260507195332 19 12 14.5 0.0 0.00 0.00 0.00 40 1013.0
20260507194336 19 26 12.9 0.0 0.00 0.00 0.00 40 1013.0
20260507193401 18 3 16.1 0.0 0.00 0.00 0.00 40 1013.1
20260507192328 18 348 12.9 0.0 0.00 0.00 0.00 40 1013.1
20260507191354 18 354 14.5 0.0 0.00 0.00 0.00 40 1013.1
20260507190341 18 19 11.3 0.0 0.00 0.00 0.00 41 1013.1
20260507185328 18 17 14.5 0.0 0.00 0.00 0.00 40 1013.5
20260507184357 18 20 14.5 0.0 0.00 0.00 0.00 41 1013.6
20260507183326 19 302 14.5 0.0 0.00 0.00 0.00 40 1013.5
20260507182349 18 357 14.5 0.0 0.00 0.00 0.00 41 1013.9
20260507181332 18 326 14.5 0.0 0.00 0.00 0.00 41 1014.0
20260507180357 18 359 12.9 0.0 0.00 0.00 0.00 41 1014.0
20260507175343 18 334 12.9 0.0 0.00 0.00 0.00 44 1013.6
20260507174348 18 340 12.9 0.0 0.00 0.00 0.00 43 1013.6
20260507173357 18 336 17.7 0.0 0.00 0.00 0.00 44 1013.8
20260507172343 18 7 12.9 0.0 0.00 0.00 0.00 44 1014.2
20260507171332 18 300 12.9 0.0 0.00 0.00 0.00 43 1014.3
20260507170336 18 316 9.7 0.0 0.00 0.00 0.00 44 1013.6
20260507165340 18 5 8.0 0.0 0.00 0.00 0.00 45 1014.2
20260507164344 18 346 9.7 0.0 0.00 0.00 0.00 45 1014.2
20260507163332 18 344 8.0 0.0 0.00 0.00 0.00 45 1014.1
20260507162336 18 273 8.0 0.0 0.00 0.00 0.00 45 1014.3
20260507161341 17 241 4.8 0.0 0.00 0.00 0.00 47 1013.7
20260507160325 17 181 4.8 0.0 0.00 0.00 0.00 50 1013.6
20260507155336 16 172 3.2 0.0 0.00 0.00 0.00 52 1014.0
20260507154341 16 146 8.0 0.0 0.00 0.00 0.00 53 1014.4
20260507153325 16 41 3.2 0.0 0.00 0.00 0.00 51 1014.3
20260507152329 16 78 3.2 0.0 0.00 0.00 0.00 51 1014.3
20260507151338 15 169 6.4 0.0 0.00 0.00 0.00 54 1014.6
20260507150342 15 270 3.2 0.0 0.00 0.00 0.00 55 1014.1
20260507145327 15 157 3.2 0.0 0.00 0.00 0.00 56 1014.7
20260507144329 15 162 4.8 0.0 0.00 0.00 0.00 56 1014.6
20260507143333 14 223 6.4 0.0 0.00 0.00 0.00 59 1014.0
20260507142345 13 211 4.8 0.0 0.00 0.00 0.00 60 1014.1
20260507141331 13 236 4.8 0.0 0.00 0.00 0.00 62 1014.1
20260507140336 13 162 6.4 0.0 0.00 0.00 0.00 64 1013.9
20260507135340 12 192 6.4 0.0 0.00 0.00 0.00 65 1014.4
20260507134329 12 206 4.8 0.0 0.00 0.00 0.00 66 1014.6
20260507133333 12 165 6.4 0.0 0.00 0.00 0.00 68 1014.4
20260507132338 11 217 8.0 0.0 0.00 0.00 0.00 70 1014.5
20260507131342 10 199 8.0 0.0 0.00 0.00 0.00 71 1013.8
20260507130330 9 181 11.3 0.0 0.00 0.00 0.00 70 1014.1
20260507125335 9 181 9.7 0.0 0.00 0.00 0.00 68 1013.8
20260507124339 10 176 9.7 0.0 0.00 0.00 0.00 66 1014.4
20260507123403 10 132 6.4 0.0 0.00 0.00 0.00 64 1014.4
20260507122330 11 45 4.8 0.0 0.00 0.00 0.00 65 1013.8
20260507121333 11 347 8.0 0.0 0.00 0.00 0.00 66 1013.8
20260507120338 11 163 6.4 0.0 0.00 0.00 0.00 66 1013.8
20260507115353 11 140 9.7 0.0 0.00 0.00 0.00 66 1013.8
20260507114337 11 38 17.7 0.0 0.00 0.00 0.00 66 1013.5
20260507113345 11 33 16.1 0.0 0.00 0.00 0.00 65 1013.7
20260507112348 12 55 19.3 0.0 0.00 0.00 0.00 65 1013.6
20260507111330 11 339 8.0 0.0 0.00 0.00 0.00 68 1013.9
20260507110337 10 31 6.4 0.0 0.00 0.00 0.00 68 1014.4
20260507105329 10 65 4.8 0.0 0.00 0.00 0.00 67 1014.0
20260507104356 10 124 4.8 0.0 0.00 0.00 0.00 67 1013.7
20260507103338 10 72 4.8 0.0 0.00 0.00 0.00 66 1013.6
20260507102345 10 69 4.8 0.0 0.00 0.00 0.00 66 1013.6
20260507101332 9 43 1.6 0.0 0.00 0.00 0.00 65 1013.5
20260507100336 10 43 4.8 0.0 0.00 0.00 0.00 64 1013.6
20260507095341 10 59 3.2 0.0 0.00 0.00 0.00 63 1013.2
20260507094329 10 163 4.8 0.0 0.00 0.00 0.00 62 1013.2
20260507093356 11 169 8.0 0.0 0.00 0.00 0.00 62 1012.9
20260507092342 10 176 11.3 0.0 0.00 0.00 0.00 62 1013.3
20260507091327 10 193 6.4 0.0 0.00 0.00 0.00 62 1013.1
20260507090331 11 198 8.0 0.0 0.00 0.00 0.00 60 1012.8
20260507085334 11 191 8.0 0.0 0.00 0.00 0.00 60 1012.6
20260507084341 11 192 8.0 0.0 0.00 0.00 0.00 59 1012.5
20260507083325 12 196 4.8 0.0 0.00 0.00 0.00 57 1012.5
20260507082330 12 146 3.2 0.0 0.00 0.00 0.00 55 1013.1
20260507081334 14 28 3.2 0.0 0.00 0.00 0.00 52 1012.8
20260507080342 14 28 3.2 0.0 0.00 0.00 0.00 51 1012.9
20260507075405 14 96 1.6 0.0 0.00 0.00 0.00 51 1012.6
20260507074348 14 257 3.2 0.0 0.00 0.00 0.00 51 1012.6
20260507073331 15 328 3.2 0.0 0.00 0.00 0.00 51 1013.4
20260507072335 15 310 4.8 0.0 0.00 0.00 0.00 52 1012.7
20260507071324 14 354 4.8 0.0 0.00 0.00 0.00 53 1012.7
20260507070329 13 277 6.4 0.0 0.00 0.00 0.00 54 1012.6
20260507065333 13 276 11.3 0.0 0.00 0.00 0.00 54 1013.3
20260507064337 13 311 11.3 0.0 0.00 0.00 0.00 54 1013.2
20260507063401 14 295 9.7 0.0 0.00 0.00 0.00 53 1012.9
20260507062328 15 321 12.9 0.0 0.00 0.00 0.00 50 1012.9
20260507061331 15 338 6.4 0.0 0.00 0.00 0.00 49 1012.6
20260507060336 15 272 14.5 0.0 0.00 0.00 0.00 47 1012.8
20260507055400 15 238 17.7 0.0 0.00 0.00 0.00 46 1011.8
20260507054326 16 250 17.7 0.0 0.00 0.00 0.00 43 1011.7
20260507053350 16 250 22.5 0.0 0.00 0.00 0.00 42 1012.1
20260507052353 16 257 14.5 0.0 0.00 0.00 0.00 42 1012.0
20260507051336 16 252 16.1 0.0 0.00 0.00 0.00 44 1012.0
20260507050338 16 302 16.1 0.0 0.00 0.00 0.00 45 1012.1
20260507045326 16 240 22.5 0.0 0.00 0.00 0.00 45 1011.6